New Iberia, LA

11:18 PM CDT on March 25, 2017 (GMT -0500)
Acadiana Regional

Weather History for KARA - January, 2013

Change the Weather History Date:

Monday, January 28, 2013

  Actual Average Record
Temperature  
Mean Temperature 71 °F 53 °F  
Max Temperature 77 °F 63 °F 80 °F (1957)
Min Temperature 64 °F 43 °F 26 °F (2004)
Degree Days  
Heating Degree Days 0 12  
Month to date heating degree days 259 357  
Since 1 July heating degree days 694 904  
Cooling Degree Days 6 0  
Month to date cooling degree days 29 9  
Year to date cooling degree days 29 9  
Growing Degree Days 20 (Base 50)    
Moisture  
Dew Point 64 °F    
Average Humidity 80    
Maximum Humidity 90    
Minimum Humidity 69    
Precipitation  
Precipitation 0.00 in 0.17 in 1.14 in (1997)
Month to date precipitation 11.95 4.67  
Year to date precipitation 11.95 4.67  
Sea Level Pressure  
Sea Level Pressure 30.16 in    
Wind  
Wind Speed 10 mph (SE)    
Max Wind Speed 20 mph    
Max Gust Speed 23 mph    
Visibility 10 miles    
Events      
T = Trace of Precipitation, MM = Missing Value Source: NWS Daily Summary

Daily Weather History Graph

Daily Weather History Graph

Search for Another Location

Airport or City:

Trip Planner

Search our weather history database for the weather conditions in past years. The results will help you decide how hot, cold, wet, or windy it might be!

Date:

Astronomy

Jan. 28, 2013 Rise Set
Actual Time 6:59 AM CST 5:41 PM CST
Civil Twilight 6:34 AM CST 6:06 PM CST
Nautical Twilight 6:05 AM CST 6:35 PM CST
Astronomical Twilight 5:37 AM CST 7:03 PM CST
Moon 7:24 PM CST (1/28) 7:36 AM CST (1/28)
Length of Visible Light 11h 32m
Length of Day
10h 41m
Full, 98% of the Moon is Illuminated
Jan 28
Full
Feb 3
Last Quarter
Feb 10
New
Feb 17
First Quarter
Feb 25
Full

Hourly Weather History & Observations

Time (CST) Temp. Dew Point Humidity Pressure Visibility Wind Dir Wind Speed Gust Speed Precip Events Conditions
12:24 AM 64.4 °F 60.8 °F 88% 30.19 in 10.0 mi SE 8.1 mph - N/A   Scattered Clouds
12:53 AM 64.9 °F 61.0 °F 87% 30.19 in 10.0 mi SE 9.2 mph - N/A   Partly Cloudy
1:53 AM 64.9 °F 61.0 °F 87% 30.18 in 10.0 mi SE 10.4 mph - N/A   Mostly Cloudy
2:53 AM 64.9 °F 61.0 °F 87% 30.18 in 10.0 mi SE 6.9 mph - N/A   Overcast
3:53 AM 64.9 °F 61.0 °F 87% 30.17 in 10.0 mi SE 6.9 mph - N/A   Overcast
4:53 AM 64.0 °F 60.1 °F 87% 30.17 in 10.0 mi ESE 5.8 mph - N/A   Overcast
5:53 AM 64.9 °F 61.0 °F 87% 30.17 in 10.0 mi ESE 5.8 mph - N/A   Overcast
6:53 AM 64.9 °F 61.0 °F 87% 30.19 in 10.0 mi East 4.6 mph - N/A   Overcast
7:53 AM 66.0 °F 62.1 °F 87% 30.20 in 9.0 mi ESE 6.9 mph - N/A   Overcast
8:53 AM 68.0 °F 63.0 °F 84% 30.22 in 10.0 mi ESE 6.9 mph - N/A   Overcast
9:22 AM 69.8 °F 62.6 °F 78% 30.22 in 10.0 mi ESE 5.8 mph - N/A   Overcast
9:38 AM 69.8 °F 64.4 °F 83% 30.23 in 10.0 mi ESE 6.9 mph - N/A   Overcast
9:53 AM 70.0 °F 64.0 °F 81% 30.23 in 10.0 mi SE 8.1 mph - N/A   Overcast
10:11 AM 69.8 °F 64.4 °F 83% 30.23 in 10.0 mi SE 9.2 mph - N/A   Overcast
10:53 AM 71.1 °F 64.9 °F 81% 30.22 in 10.0 mi SE 9.2 mph - N/A   Overcast
11:09 AM 71.6 °F 64.4 °F 78% 30.22 in 10.0 mi SE 8.1 mph - N/A   Overcast
11:17 AM 71.6 °F 64.4 °F 78% 30.22 in 10.0 mi SSE 9.2 mph - N/A   Overcast
11:53 AM 73.9 °F 64.9 °F 73% 30.20 in 10.0 mi SSE 15.0 mph - N/A   Overcast
12:53 PM 75.9 °F 64.9 °F 69% 30.16 in 10.0 mi SSE 17.3 mph - N/A   Overcast
1:53 PM 75.9 °F 64.9 °F 69% 30.14 in 10.0 mi SSE 18.4 mph - N/A   Overcast
2:24 PM 77.0 °F 64.4 °F 65% 30.13 in 10.0 mi SSE 13.8 mph - N/A   Overcast
2:53 PM 75.9 °F 64.0 °F 67% 30.12 in 10.0 mi SSE 17.3 mph - N/A   Overcast
3:53 PM 75.9 °F 64.0 °F 67% 30.12 in 10.0 mi SSE 11.5 mph - N/A   Overcast
4:53 PM 75.0 °F 64.0 °F 69% 30.12 in 10.0 mi SSE 12.7 mph - N/A   Mostly Cloudy
5:53 PM 71.1 °F 64.0 °F 78% 30.11 in 10.0 mi SSE 9.2 mph - N/A   Partly Cloudy
6:53 PM 68.0 °F 64.0 °F 87% 30.11 in 10.0 mi SSE 5.8 mph - N/A   Clear
7:53 PM 68.0 °F 64.0 °F 87% 30.11 in 9.0 mi SE 8.1 mph - N/A   Clear
8:15 PM 69.8 °F 64.4 °F 83% 30.11 in 10.0 mi SE 11.5 mph - N/A   Mostly Cloudy
8:53 PM 70.0 °F 64.9 °F 84% 30.11 in 10.0 mi SE 11.5 mph - N/A   Overcast
9:23 PM 69.8 °F 64.4 °F 83% 30.10 in 10.0 mi SE 12.7 mph - N/A   Overcast
9:53 PM 70.0 °F 64.9 °F 84% 30.10 in 10.0 mi SSE 11.5 mph - N/A   Mostly Cloudy
10:03 PM 69.8 °F 66.2 °F 88% 30.10 in 10.0 mi SSE 11.5 mph - N/A   Overcast
10:53 PM 70.0 °F 66.0 °F 87% 30.09 in 9.0 mi SE 13.8 mph - N/A   Overcast
11:53 PM 70.0 °F 66.0 °F 87% 30.09 in 10.0 mi SSE 11.5 mph - N/A   Overcast